User: anonymous   Login
Location: Eaton Estates
(41.3089°N, 82.0057°W)
Time: 15:06:05
(UTC+00:00)
Language:

NOAA 19 - Orbit

View from above orbital plane
View from above orbital plane
View from above satellite
View from above satellite

Ground track
Ground track

The orbit data is extracted from the following two-line orbital elements,

1 33591U 09005A   23079.22738783  .00000289  00000-0  18028-3 0  9997
2 33591  99.1123 123.6868 0014691 131.2445 228.9995 14.12713209727384
Epoch (UTC): 20 March 2023 05:27:26
Eccentricity: 0.0014691
inclination: 99.1123°
perigee height: 839 km
apogee height: 861 km
right ascension of ascending node: 123.6868°
argument of perigee: 131.2445°
revolutions per day: 14.12713209
mean anomaly at epoch: 228.9995°
orbit number at epoch: 72738

The dashed part of the orbit path shows where the satellite is in the earth's shadow,  

DLR